Location: Downe
(51.3167°N, 0.0500°E)
Time: 13:44:00
(UTC+00:00)

Cosmos 1725 Rocket - Pass Details

Date: 17 November 2019
Orbit: 962 x 990 km, 82.9° (Epoch: 07 December)

Event Time Altitude Azimuth Distance (km) Brightness Sun altitude
Rises 06:04:03 0° 197° (SSW) 3,667 7.0 -11.7°
Reaches altitude 10° 06:06:34 10° 200° (SSW) 2,727 6.3 -11.3°
Maximum altitude 06:12:48 66° 283° (WNW) 1,070 4.0 -10.4°
Drops below altitude 10° 06:19:06 10° 6° (N) 2,761 6.2 -9.5°
Sets 06:21:41 0° 9° (N) 3,716 6.9 -9.1°
